TimeCDT,TemperatureF,Dew PointF,Humidity,Sea Level PressureIn,VisibilityMPH,Wind Direction,Wind SpeedMPH,Gust SpeedMPH,PrecipitationIn,Events,Conditions,WindDirDegrees,DateUTC
12:52 AM,75.0,64.0,69,29.66,10.0,SSE,17.3,24.2,N/A,,Clear,160,2013-10-04 05:52:00
1:52 AM,73.0,64.9,76,29.65,10.0,SSE,16.1,-,0.03,,Partly Cloudy,160,2013-10-04 06:52:00
2:52 AM,73.0,64.9,76,29.65,10.0,South,16.1,-,N/A,,Clear,170,2013-10-04 07:52:00
3:52 AM,73.9,64.9,73,29.63,10.0,South,16.1,25.3,N/A,,Clear,170,2013-10-04 08:52:00
4:52 AM,73.9,64.9,73,29.62,10.0,South,20.7,28.8,N/A,,Clear,170,2013-10-04 09:52:00
5:52 AM,73.9,64.9,73,29.63,10.0,South,19.6,-,N/A,,Clear,170,2013-10-04 10:52:00
6:52 AM,73.9,64.9,73,29.63,10.0,South,18.4,29.9,N/A,,Clear,170,2013-10-04 11:52:00
7:52 AM,73.9,64.9,73,29.65,10.0,South,18.4,24.2,N/A,,Partly Cloudy,170,2013-10-04 12:52:00
8:52 AM,73.9,66.0,76,29.66,10.0,South,19.6,23.0,N/A,,Clear,170,2013-10-04 13:52:00
9:52 AM,77.0,66.0,69,29.66,10.0,South,21.9,-,N/A,,Scattered Clouds,170,2013-10-04 14:52:00
10:52 AM,80.1,66.0,62,29.67,10.0,South,26.5,39.1,N/A,,Partly Cloudy,190,2013-10-04 15:52:00
11:52 AM,84.0,64.0,51,29.66,10.0,South,28.8,38.0,N/A,,Clear,190,2013-10-04 16:52:00
12:52 PM,87.1,64.0,46,29.65,10.0,South,28.8,36.8,0.02,,Clear,190,2013-10-04 17:52:00
1:52 PM,90.0,62.1,39,29.64,10.0,SSW,19.6,27.6,N/A,,Clear,210,2013-10-04 18:52:00
2:52 PM,91.0,59.0,34,29.62,10.0,SSW,18.4,31.1,N/A,,Clear,200,2013-10-04 19:52:00
3:19 PM,84.2,44.6,25,29.72,10.0,WNW,17.3,21.9,N/A,,Mostly Cloudy,290,2013-10-04 20:19:00
3:52 PM,86.0,48.9,28,29.66,10.0,West,15.0,-,N/A,,Scattered Clouds,280,2013-10-04 20:52:00
4:52 PM,82.9,53.1,36,29.67,10.0,WNW,19.6,-,N/A,,Clear,300,2013-10-04 21:52:00
5:52 PM,77.0,48.9,37,29.72,10.0,NW,21.9,34.5,N/A,,Clear,310,2013-10-04 22:52:00
6:52 PM,71.1,44.1,38,29.79,10.0,NNW,18.4,25.3,N/A,,Scattered Clouds,330,2013-10-04 23:52:00
7:52 PM,64.9,39.9,40,29.85,10.0,NNW,16.1,23.0,N/A,,Partly Cloudy,340,2013-10-05 00:52:00
8:52 PM,62.1,37.9,41,29.90,10.0,NNW,21.9,26.5,N/A,,Mostly Cloudy,330,2013-10-05 01:52:00
9:52 PM,59.0,34.0,39,29.94,10.0,NNW,17.3,32.2,N/A,,Overcast,330,2013-10-05 02:52:00
10:52 PM,55.9,33.1,42,29.98,10.0,NW,16.1,-,N/A,,Overcast,320,2013-10-05 03:52:00
11:52 PM,54.0,30.0,40,29.99,10.0,NW,24.2,31.1,N/A,,Overcast,320,2013-10-05 04:52:00